User: anonymous   Login
Location: ASU Dark Sky Observatory
(36.2504°N, 81.4125°W)
Time: 01:45:44
(UTC-04:00)
Language:

ETS-7 - Orbit

View from above orbital plane
View from above orbital plane
View from above satellite
View from above satellite

Ground track
Ground track

The orbit data is extracted from the following two-line orbital elements,

1 25064U 97074B   15212.02385939  .00057704  00000-0  29728-3 0  9998
2 25064 034.9485 063.7848 0004227 001.5471 126.1393 15.79965884985099
Epoch (UTC): 31 July 2015 00:34:21
Eccentricity: 0.0004227
inclination: 34.9485°
perigee height: 328 km
apogee height: 333 km
right ascension of ascending node: 63.7848°
argument of perigee: 1.5471°
revolutions per day: 15.79965884
mean anomaly at epoch: 126.1393°
orbit number at epoch: 98509

The dashed part of the orbit path shows where the satellite is in the earth's shadow,  

DLR